Terminal Aerodrome Forecast
Issued by NWS Shreveport, LA

Home | Current Version | Previous Version | Text Only | Print | Product List | Glossary On
Versions: 1 2 3 4 5 6 7 8 9 10 11 12 13 14 15 16
000
FTUS44 KSHV 011700
TAFGGG
TAF
KGGG 011737Z 0118/0218 19011G18KT P6SM SCT040
     FM020100 17010KT P6SM FEW060
     FM020800 17008KT P6SM BKN011
     FM021500 19010KT P6SM BKN022=

USA.gov is the U.S. government's official web portal to all federal, state and local government web resources and services.